(24) Themis
ephemeris date magn radius delta ra dec elong phase
Today20 Oct 202512.62.944 AU3.939 AU13h42m-10°30'1.0°0.3°
Opposition30 May 202611.53.187 AU2.174 AU16h29m-22°24'179.3°0.2°
(24) Themis - 2025-10-20
astro.vanbuitenen.nl


 
-1 year
-1 month
-1 day
Now
+1 day
+1 month
+1 year

The interactive orbit chart above shows the body's path through the solar system and its position at the given date. Green and blue lines are shown perpendicular to the ecliptic plane: Green if the path is above the ecliptic plane, blue if it is below. (Left-click and drag to rotate the view; Right-click and drag to move the view; Use scroll wheel to zoom in our out.)

The orbital elements of Themis are:

            e (Eccentricity)                : 0.1152743
            a (Semimajor axis)              : 3.1427396
            i (Inclination)                 : 0.73676
            Ω (Longitude of ascending node) : 36.38944
            ω (Argument of perihelion)      : 109.03450
            M (Mean anomaly)                : 21.45735
            Epoch                           : 2025 May 05

            L (Longitude of perihelion)     : -34.57460
            B (Latitude of perihelion)      : 0.69647
            P (Orbital period in years)     : 5.57            
        

The light curve chart below shows the estimated development of the minor planet's magnitude.


The all-sky chart below shows the path of the minor planet over the same period as the light curve. The current position is marked yellow.





The following chart shows the path of the minor planet in the next few days. The field of view is optimized for (~10x50) binoculars and finderscopes.




Ephemerides:
Date       Time       RA (2000)    DEC (2000)    delta   radius  elong  phase   PA    magn
2025-10-20 00:00 UT   13 42 13.4   -10 30 20     3.939    2.944    1.0    0.3   106   12.6 
2025-10-20 16:12 UT   13 43 15.0   -10 36 13     3.940    2.945    0.6    0.2   104   12.6 
2025-10-21 00:00 UT   13 43 44.7   -10 39 03     3.940    2.945    0.4    0.1   100   12.6 
2025-10-22 00:00 UT   13 45 16.0   -10 47 45     3.941    2.946    0.2    0.1   312   12.6 
2025-10-23 00:00 UT   13 46 47.3   -10 56 25     3.942    2.947    0.8    0.3   296   12.6 
2025-10-24 00:00 UT   13 48 18.7   -11 05 03     3.942    2.948    1.4    0.5   294   12.6 
2025-10-25 00:00 UT   13 49 50.1   -11 13 39     3.943    2.949    2.0    0.7   293   12.7 
2025-10-26 00:00 UT   13 51 21.6   -11 22 12     3.943    2.950    2.6    0.9   292   12.7 
2025-10-27 00:00 UT   13 52 53.2   -11 30 44     3.943    2.951    3.2    1.1   292   12.7 
2025-10-28 00:00 UT   13 54 24.7   -11 39 14     3.943    2.952    3.8    1.3   291   12.7 
2025-10-29 00:00 UT   13 55 56.3   -11 47 41     3.942    2.953    4.4    1.5   291   12.7 
2025-10-30 00:00 UT   13 57 27.9   -11 56 07     3.942    2.954    5.0    1.7   291   12.8 
2025-10-31 00:00 UT   13 58 59.6   -12 04 30     3.942    2.955    5.6    1.9   291   12.8 
2025-11-01 00:00 UT   14 00 31.3   -12 12 50     3.941    2.956    6.2    2.1   291   12.8 
2025-11-02 00:00 UT   14 02 03.0   -12 21 09     3.940    2.957    6.8    2.3   290   12.8 
2025-11-03 00:00 UT   14 03 34.7   -12 29 25     3.939    2.958    7.4    2.5   290   12.8 
2025-11-04 00:00 UT   14 05 06.4   -12 37 39     3.938    2.959    8.0    2.7   290   12.8 
2025-11-05 00:00 UT   14 06 38.2   -12 45 50     3.937    2.960    8.6    2.9   290   12.8 
2025-11-06 00:00 UT   14 08 09.9   -12 53 59     3.935    2.961    9.2    3.1   290   12.9 
2025-11-07 00:00 UT   14 09 41.7   -13 02 05     3.934    2.962    9.8    3.3   290   12.9 
2025-11-08 00:00 UT   14 11 13.5   -13 10 09     3.932    2.963   10.4    3.5   290   12.9 
2025-11-09 00:00 UT   14 12 45.3   -13 18 11     3.930    2.964   11.0    3.7   290   12.9 
2025-11-10 00:00 UT   14 14 17.1   -13 26 10     3.929    2.965   11.6    3.9   290   12.9 


    Terminology:
            
    delta:  distance between minor planet and earth in AU
    radius: distance between minor planet and sun in AU
    magn:   magnitude (brightness) estimate    
    ra:     right ascension in hours (24h = 360deg)
    dec:    declination in degrees
    elong:  elongation in degrees (angle sun-earth-minor planet)    
    phase:  phase angle in degrees (angle sun-minor planet-earth)        
    AU:     Astronomical Unit (mean distance between earth and sun: 149597870.7 km
    

Orbital elements provided by the MPC (Minor Planet Center).
Calculations by a modified version of AAPlus, a C# implementation of the AA+ project by PJ Naughter from the algorithms presented in the book "Astronomical Algorithms" by Jean Meeus.
NGC2000 dso catalog and star labels from VizieR as provided by the Strasbourg astronomical Data Center.
Tycho2 catalog from the ESO archive.